Weather History for Adana, Turkey

Change the Weather History Date:

Monday, December 31, 2012

  Actual Average Record
Temperature  
Mean Temperature 50 °F -  
Max Temperature 62 °F 57 °F 71 °F (1999)
Min Temperature 37 °F 39 °F 28 °F (2006)
Degree Days  
Heating Degree Days 16    
Moisture  
Dew Point 36 °F    
Average Humidity 65    
Maximum Humidity 93    
Minimum Humidity 30    
Precipitation  
Precipitation 0.00 in 0.15 in - ()
Sea Level Pressure  
Sea Level Pressure 30.17 in    
Wind  
Wind Speed 3 mph ()    
Max Wind Speed 8 mph    
Max Gust Speed -    
Visibility 2.7 miles    
Events Fog    
Averages and records for this station are not official NWS values.
T = Trace of Precipitation, MM = Missing Value Source: Averaged Metar Reports

Daily Weather History Graph

Daily Weather History Graph

Search for Another Location

Airport:

Trip Planner

Search our weather history database for the weather conditions in past years. The results will help you decide how hot, cold, wet, or windy it might be!

Date:

Astronomy

Dec. 31, 2012 Rise Set
Actual Time 6:51 AM EET 4:32 PM EET
Civil Twilight 6:22 AM EET 5:01 PM EET
Nautical Twilight 5:50 AM EET 5:33 PM EET
Astronomical Twilight 5:18 AM EET 6:05 PM EET
Moon 7:37 PM EET (12/31) 8:26 AM EET (12/31)
Length of Visible Light 10h 38m
Length of Day
9h 40m
Waning Gibbous, 92% of the Moon is Illuminated
Dec 31
Waning Gibbous
Jan 5
Last Quarter
Jan 11
New
Jan 19
First Quarter
Jan 27
Full

Hourly Weather History & Observations

Time (EET) Temp. Windchill Dew Point Humidity Pressure Visibility Wind Dir Wind Speed Gust Speed Precip Events Conditions
12:20 AM 46.4 °F - 41.0 °F 81% 30.18 in 3.1 mi Variable 2.3 mph - N/A   Mist
12:50 AM 46.4 °F - 41.0 °F 81% 30.18 in 3.1 mi Calm Calm - N/A   Mist
1:20 AM 41.0 °F - 37.4 °F 87% 30.18 in 3.1 mi Calm Calm - N/A   Mist
1:50 AM 41.0 °F 38.0 °F 37.4 °F 87% 30.18 in 3.1 mi NE 4.6 mph - N/A   Mist
2:20 AM 42.8 °F - 37.4 °F 81% 30.18 in 3.1 mi Variable 2.3 mph - N/A   Mist
2:50 AM 42.8 °F 41.1 °F 37.4 °F 81% 30.18 in 3.1 mi NW 3.5 mph - N/A   Mist
3:20 AM 41.0 °F - 35.6 °F 81% 30.18 in 3.1 mi Variable 1.2 mph - N/A   Mist
3:50 AM 37.4 °F - 35.6 °F 93% 30.18 in 3.1 mi Variable 2.3 mph - N/A   Mist
4:20 AM 37.4 °F - 35.6 °F 93% 30.18 in 3.1 mi Calm Calm - N/A   Mist
4:50 AM 37.4 °F - 35.6 °F 93% 30.18 in 3.1 mi Calm Calm - N/A   Mist
5:20 AM 39.2 °F 35.9 °F 37.4 °F 93% 30.18 in 3.1 mi NE 4.6 mph - N/A   Mist
5:50 AM 41.0 °F 39.0 °F 37.4 °F 87% 30.18 in 3.1 mi NNE 3.5 mph - N/A   Mist
6:20 AM 37.4 °F 33.8 °F 35.6 °F 93% 30.18 in 3.1 mi NE 4.6 mph - N/A   Mist
6:50 AM 39.2 °F 35.0 °F 37.4 °F 93% 30.21 in 3.1 mi NE 5.8 mph - N/A   Mist
7:20 AM 41.0 °F 39.0 °F 37.4 °F 87% 30.21 in 3.1 mi North 3.5 mph - N/A   Mist
7:50 AM 42.8 °F - 39.2 °F 87% 30.21 in 3.1 mi NNW 2.3 mph - N/A   Mist
8:20 AM 46.4 °F - 41.0 °F 81% 30.21 in 3.1 mi Variable 2.3 mph - N/A   Mist
8:50 AM 50.0 °F - 42.8 °F 76% 30.21 in 3.1 mi Variable 2.3 mph - N/A   Mist
9:20 AM 53.6 °F - 39.2 °F 58% 30.21 in - NNE 6.9 mph - N/A   Clear
9:50 AM 55.4 °F - 37.4 °F 51% 30.21 in - NNE 8.1 mph - N/A   Clear
10:20 AM 57.2 °F - 33.8 °F 41% 30.21 in - NE 8.1 mph - N/A   Clear
10:50 AM 59.0 °F - 33.8 °F 39% 30.21 in - NE 8.1 mph - N/A   Clear
11:20 AM 60.8 °F - 32.0 °F 34% 30.18 in - ENE 6.9 mph - N/A   Clear
11:50 AM 62.6 °F - 32.0 °F 32% 30.18 in - NNE 6.9 mph - N/A   Clear
12:20 PM 62.6 °F - 30.2 °F 30% 30.15 in - ENE 6.9 mph - N/A   Clear
12:50 PM 62.6 °F - 30.2 °F 30% 30.15 in - ENE 6.9 mph - N/A   Clear
1:20 PM 62.6 °F - 30.2 °F 30% 30.15 in - ENE 6.9 mph - N/A   Clear
1:50 PM 62.6 °F - 30.2 °F 30% 30.15 in - ENE 6.9 mph - N/A   Clear
2:20 PM 62.6 °F - 30.2 °F 30% 30.12 in - East 5.8 mph - N/A   Clear
2:50 PM 62.6 °F - 32.0 °F 32% 30.12 in - East 4.6 mph - N/A   Clear
3:20 PM 62.6 °F - 32.0 °F 32% 30.15 in - NE 4.6 mph - N/A   Clear
3:50 PM 60.8 °F - 33.8 °F 36% 30.12 in - East 3.5 mph - N/A   Clear
4:20 PM 57.2 °F - 37.4 °F 48% 30.12 in - East 2.3 mph - N/A   Clear
4:50 PM 53.6 °F - 35.6 °F 51% 30.12 in 3.1 mi SE 1.2 mph - N/A   Haze
5:20 PM 50.0 °F - 35.6 °F 58% 30.15 in 3.1 mi SE 2.3 mph - N/A   Haze
5:50 PM 48.2 °F - 37.4 °F 66% 30.15 in 3.1 mi ESE 2.3 mph - N/A   Smoke
6:20 PM 50.0 °F - 39.2 °F 66% 30.15 in 0.7 mi North 4.6 mph - N/A   Smoke
6:50 PM 51.8 °F - 39.2 °F 62% 30.15 in 0.6 mi NE 3.5 mph - N/A   Smoke
7:20 PM 48.2 °F - 39.2 °F 71% 30.15 in 0.6 mi North 2.3 mph - N/A Fog Patches of Fog
7:50 PM 50.0 °F - 39.2 °F 66% 30.15 in 0.5 mi North 3.5 mph - N/A   Smoke
8:20 PM 46.4 °F 44.3 °F 37.4 °F 71% 30.15 in 0.7 mi North 4.6 mph - N/A Fog Patches of Fog
8:50 PM 48.2 °F - 39.2 °F 71% 30.15 in 1.0 mi NNW 3.5 mph - N/A Fog Patches of Fog
9:20 PM 48.2 °F - 37.4 °F 66% 30.15 in 3.1 mi North 3.5 mph - N/A   Mist
9:50 PM 44.6 °F 42.2 °F 35.6 °F 71% 30.15 in 3.1 mi North 4.6 mph - N/A   Mist
10:20 PM 44.6 °F 43.1 °F 37.4 °F 76% 30.15 in 3.1 mi NNE 3.5 mph - N/A   Mist
10:50 PM 44.6 °F - 37.4 °F 76% 30.15 in 3.1 mi Calm Calm - N/A   Mist
11:20 PM 42.8 °F - 37.4 °F 81% 30.15 in 3.1 mi North 2.3 mph - N/A   Mist
11:50 PM 42.8 °F 40.1 °F 37.4 °F 81% 30.15 in 3.1 mi NNE 4.6 mph - N/A   Mist